Time,TemperatureF,DewpointF,PressureIn,WindDirection,WindDirectionDegrees,WindSpeedMPH,WindSpeedGustMPH,Humidity,HourlyPrecipIn,Conditions,Clouds,dailyrainin,SoftwareType,DateUTC
2013-01-14 00:04:00,0.0,45.6,30.08,North,0,0.0,0.0,0,0.00,,,-99.99,Weather View 32 v70,2013-01-14 05:04:00,
2013-01-14 00:10:00,0.0,45.6,30.08,North,0,0.0,0.0,0,0.00,,,-99.99,Weather View 32 v70,2013-01-14 05:10:00,
2013-01-14 00:14:00,0.0,45.6,30.08,North,0,0.0,0.0,0,0.00,,,-99.99,Weather View 32 v70,2013-01-14 05:14:00,
2013-01-14 00:20:00,0.0,45.6,30.08,North,0,0.0,0.0,0,0.00,,,-99.99,Weather View 32 v70,2013-01-14 05:20:00,
2013-01-14 00:25:00,0.0,45.6,30.08,North,0,0.0,0.0,0,0.00,,,-99.99,Weather View 32 v70,2013-01-14 05:25:00,
2013-01-14 00:30:00,0.0,45.6,30.08,North,0,0.0,0.0,0,0.00,,,-99.99,Weather View 32 v70,2013-01-14 05:30:00,
2013-01-14 00:39:00,0.0,45.6,30.08,North,0,0.0,0.0,0,0.00,,,-99.99,Weather View 32 v70,2013-01-14 05:39:00,
2013-01-14 00:41:00,0.0,45.6,30.08,North,0,0.0,0.0,0,0.00,,,-99.99,Weather View 32 v70,2013-01-14 05:41:00,
2013-01-14 00:44:00,0.0,45.6,30.08,North,0,0.0,0.0,0,0.00,,,-99.99,Weather View 32 v70,2013-01-14 05:44:00,
2013-01-14 18:17:00,0.0,45.6,30.08,North,0,0.0,0.0,0,0.00,,,-99.99,Weather View 32 v70,2013-01-14 23:17:00,
2013-01-14 18:20:00,48.9,15.5,30.14,North,350,6.0,9.0,26,0.00,,,-99.99,Weather View 32 v70,2013-01-14 23:20:00,
2013-01-14 18:25:00,48.4,15.0,30.14,NNW,346,8.0,9.0,26,0.00,,,-99.99,Weather View 32 v70,2013-01-14 23:25:00,
2013-01-14 18:30:00,48.0,15.6,30.14,NNW,346,6.0,9.0,27,0.00,,,-99.99,Weather View 32 v70,2013-01-14 23:30:00,
2013-01-14 18:35:00,47.7,16.1,30.14,NNW,346,4.0,9.0,28,0.00,,,-99.99,Weather View 32 v70,2013-01-14 23:35:00,
2013-01-14 18:40:00,47.3,15.0,30.14,North,353,5.0,9.0,27,0.00,,,-99.99,Weather View 32 v70,2013-01-14 23:40:00,
2013-01-14 18:45:00,47.1,14.8,30.14,NNW,340,4.0,9.0,27,0.00,,,-99.99,Weather View 32 v70,2013-01-14 23:45:00,
2013-01-14 18:50:00,47.1,15.6,30.14,NW,320,6.0,9.0,28,0.00,,,-99.99,Weather View 32 v70,2013-01-14 23:50:00,
2013-01-14 18:55:00,46.9,15.5,30.14,NW,326,4.0,9.0,28,0.00,,,-99.99,Weather View 32 v70,2013-01-14 23:55:00,
2013-01-14 19:04:00,46.8,16.1,30.14,NW,315,3.0,9.0,29,0.00,,,-99.99,Weather View 32 v70,2013-01-15 00:04:00,
2013-01-14 19:10:00,46.6,16.0,30.14,NW,325,4.0,9.0,29,0.00,,,-99.99,Weather View 32 v70,2013-01-15 00:10:00,
2013-01-14 19:14:00,46.4,15.8,30.14,NW,314,3.0,9.0,29,0.00,,,-99.99,Weather View 32 v70,2013-01-15 00:14:00,
2013-01-14 19:18:00,46.4,15.8,30.14,NW,314,3.0,9.0,29,0.00,,,-99.99,Weather View 32 v70,2013-01-15 00:18:00,
2013-01-14 19:19:00,46.4,15.8,30.14,NNW,338,3.0,9.0,29,0.00,,,-99.99,Weather View 32 v70,2013-01-15 00:19:00,
2013-01-14 19:25:00,46.6,16.0,30.14,North,353,3.0,9.0,29,0.00,,,-99.99,Weather View 32 v70,2013-01-15 00:25:00,
2013-01-14 19:34:00,46.8,15.3,30.14,NW,318,4.0,8.0,28,0.00,,,-99.99,Weather View 32 v70,2013-01-15 00:34:00,
2013-01-14 19:39:00,46.9,14.6,30.14,WNW,296,4.0,8.0,27,0.00,,,-99.99,Weather View 32 v70,2013-01-15 00:39:00,
2013-01-14 19:45:00,46.9,14.6,30.14,NW,325,3.0,8.0,27,0.00,,,-99.99,Weather View 32 v70,2013-01-15 00:45:00,
2013-01-14 19:50:00,47.3,15.0,30.16,NW,326,4.0,8.0,27,0.00,,,-99.99,Weather View 32 v70,2013-01-15 00:50:00,
2013-01-14 19:55:00,47.5,15.1,30.16,North,357,4.0,8.0,27,0.00,,,-99.99,Weather View 32 v70,2013-01-15 00:55:00,
2013-01-14 20:00:00,47.5,15.1,30.16,NNW,345,4.0,7.0,27,0.00,,,-99.99,Weather View 32 v70,2013-01-15 01:00:00,
2013-01-14 20:05:00,47.3,15.0,30.16,NW,325,5.0,7.0,27,0.00,,,-99.99,Weather View 32 v70,2013-01-15 01:05:00,
2013-01-14 20:10:00,47.1,14.8,30.16,North,0,6.0,8.0,27,0.00,,,-99.99,Weather View 32 v70,2013-01-15 01:10:00,
2013-01-14 20:15:00,47.1,15.6,30.16,NNW,337,6.0,8.0,28,0.00,,,-99.99,Weather View 32 v70,2013-01-15 01:15:00,
2013-01-14 20:18:00,47.1,15.6,30.16,NNW,337,6.0,8.0,28,0.00,,,-99.99,Weather View 32 v70,2013-01-15 01:18:00,
2013-01-14 20:20:00,46.8,15.3,30.19,NW,324,5.0,10.0,28,0.00,,,-99.99,Weather View 32 v70,2013-01-15 01:20:00,
2013-01-14 20:30:00,46.6,14.3,30.19,NNW,331,5.0,11.0,27,0.00,,,-99.99,Weather View 32 v70,2013-01-15 01:30:00,
2013-01-14 20:35:00,46.4,14.2,30.19,NNW,344,6.0,11.0,27,0.00,,,-99.99,Weather View 32 v70,2013-01-15 01:35:00,
2013-01-14 20:40:00,46.4,14.2,30.19,NNW,341,10.0,11.0,27,0.00,,,-99.99,Weather View 32 v70,2013-01-15 01:40:00,
2013-01-14 20:44:00,46.2,14.9,30.19,NNW,340,6.0,11.0,28,0.00,,,-99.99,Weather View 32 v70,2013-01-15 01:44:00,
2013-01-14 20:49:00,46.2,14.9,30.19,NNE,25,8.0,12.0,28,0.00,,,-99.99,Weather View 32 v70,2013-01-15 01:49:00,
2013-01-14 20:59:00,45.9,14.5,30.19,North,357,8.0,12.0,28,0.00,,,-99.99,Weather View 32 v70,2013-01-15 01:59:00,
2013-01-14 21:05:00,45.7,14.4,30.19,NNW,338,5.0,12.0,28,0.00,,,-99.99,Weather View 32 v70,2013-01-15 02:05:00,
2013-01-14 21:09:00,45.7,14.4,30.19,North,357,6.0,12.0,28,0.00,,,-99.99,Weather View 32 v70,2013-01-15 02:09:00,
2013-01-14 21:15:00,45.5,14.2,30.19,North,350,9.0,12.0,28,0.00,,,-99.99,Weather View 32 v70,2013-01-15 02:15:00,
2013-01-14 21:19:00,45.5,14.2,30.19,North,350,9.0,12.0,28,0.00,,,-99.99,Weather View 32 v70,2013-01-15 02:19:00,
2013-01-14 21:25:00,45.3,14.1,30.19,NNE,12,9.0,13.0,28,0.00,,,-99.99,Weather View 32 v70,2013-01-15 02:25:00,
2013-01-14 21:35:00,45.1,13.9,30.19,NNW,335,6.0,13.0,28,0.00,,,-99.99,Weather View 32 v70,2013-01-15 02:35:00,
2013-01-14 21:40:00,45.1,13.9,30.19,North,357,6.0,13.0,28,0.00,,,-99.99,Weather View 32 v70,2013-01-15 02:40:00,
2013-01-14 21:45:00,45.0,13.8,30.19,NNW,338,8.0,13.0,28,0.00,,,-99.99,Weather View 32 v70,2013-01-15 02:45:00,
2013-01-14 21:49:00,45.0,13.8,30.19,NNE,31,6.0,13.0,28,0.00,,,-99.99,Weather View 32 v70,2013-01-15 02:49:00,
2013-01-14 21:55:00,44.8,13.6,30.19,NNE,20,5.0,15.0,28,0.00,,,-99.99,Weather View 32 v70,2013-01-15 02:55:00,
2013-01-14 22:00:00,44.6,13.5,30.19,NNE,20,9.0,15.0,28,0.00,,,-99.99,Weather View 32 v70,2013-01-15 03:00:00,
2013-01-14 22:04:00,44.6,13.5,30.16,North,0,11.0,15.0,28,0.00,,,-99.99,Weather View 32 v70,2013-01-15 03:04:00,
2013-01-14 22:10:00,44.4,14.1,30.16,NNW,327,8.0,15.0,29,0.00,,,-99.99,Weather View 32 v70,2013-01-15 03:10:00,
2013-01-14 22:20:00,44.1,15.3,30.19,NNW,336,6.0,15.0,31,0.00,,,-99.99,Weather View 32 v70,2013-01-15 03:20:00,
2013-01-14 22:25:00,44.2,13.1,30.19,WNW,303,6.0,17.0,28,0.00,,,-99.99,Weather View 32 v70,2013-01-15 03:25:00,
2013-01-14 22:30:00,44.4,13.3,30.19,WNW,291,12.0,18.0,28,0.00,,,-99.99,Weather View 32 v70,2013-01-15 03:30:00,
2013-01-14 22:35:00,44.2,13.9,30.22,NNE,16,8.0,18.0,29,0.00,,,-99.99,Weather View 32 v70,2013-01-15 03:35:00,
2013-01-14 22:39:00,43.7,14.3,30.22,North,353,8.0,18.0,30,0.00,,,-99.99,Weather View 32 v70,2013-01-15 03:39:00,
2013-01-14 22:44:00,43.3,15.4,30.22,North,353,7.0,18.0,32,0.00,,,-99.99,Weather View 32 v70,2013-01-15 03:44:00,
2013-01-14 22:49:00,42.6,18.8,30.22,North,6,8.0,18.0,38,0.00,,,-99.99,Weather View 32 v70,2013-01-15 03:49:00,
2013-01-14 22:55:00,42.1,18.9,30.22,North,353,5.0,18.0,39,0.00,,,-99.99,Weather View 32 v70,2013-01-15 03:55:00,
2013-01-14 22:59:00,41.5,20.7,30.22,North,357,6.0,18.0,43,0.04,,,-99.99,Weather View 32 v70,2013-01-15 03:59:00,
2013-01-14 23:04:00,41.2,19.8,30.25,North,0,11.0,18.0,42,0.04,,,-99.99,Weather View 32 v70,2013-01-15 04:04:00,
2013-01-14 23:10:00,41.0,19.6,30.25,NNE,24,11.0,18.0,42,0.04,,,-99.99,Weather View 32 v70,2013-01-15 04:10:00,
2013-01-14 23:19:00,41.0,20.7,30.25,North,2,7.0,18.0,44,0.04,,,-99.99,Weather View 32 v70,2013-01-15 04:19:00,
2013-01-14 23:20:00,41.0,20.7,30.25,North,2,7.0,18.0,44,0.04,,,-99.99,Weather View 32 v70,2013-01-15 04:20:00,
2013-01-14 23:29:00,40.8,23.1,30.25,NNW,345,4.0,16.0,49,0.04,,,-99.99,Weather View 32 v70,2013-01-15 04:29:00,
2013-01-14 23:35:00,40.5,22.8,30.25,NNW,327,4.0,16.0,49,0.04,,,-99.99,Weather View 32 v70,2013-01-15 04:35:00,
2013-01-14 23:39:00,40.3,24.0,30.25,North,5,5.0,16.0,52,0.04,,,-99.99,Weather View 32 v70,2013-01-15 04:39:00,
2013-01-14 23:45:00,39.9,24.2,30.25,NNW,337,4.0,16.0,53,0.04,,,-99.99,Weather View 32 v70,2013-01-15 04:45:00,
2013-01-14 23:49:00,39.7,23.5,30.25,NNW,345,6.0,16.0,52,0.04,,,-99.99,Weather View 32 v70,2013-01-15 04:49:00,
2013-01-14 23:54:00,39.6,24.3,30.25,North,10,5.0,16.0,54,0.04,,,-99.99,Weather View 32 v70,2013-01-15 04:54:00,